Time,TemperatureF,DewpointF,PressureIn,WindDirection,WindDirectionDegrees,WindSpeedMPH,WindSpeedGustMPH,Humidity,HourlyPrecipIn,Conditions,Clouds,dailyrainin,SoftwareType,DateUTC
2013-03-20 00:04:00,27.7,24.6,29.80,NNW,332,0.0,8.0,88,0.00,,,0.00,Wunderground v.1.15,2013-03-20 04:04:00,
2013-03-20 00:09:00,27.6,24.5,29.80,NW,308,2.0,5.0,88,0.00,,,0.00,Wunderground v.1.15,2013-03-20 04:09:00,
2013-03-20 00:14:00,27.6,24.5,29.80,WNW,294,0.0,6.0,88,0.00,,,0.00,Wunderground v.1.15,2013-03-20 04:14:00,
2013-03-20 00:20:00,27.6,24.5,29.80,NW,306,2.0,4.0,88,0.00,,,0.00,Wunderground v.1.15,2013-03-20 04:20:00,
2013-03-20 00:25:00,27.6,24.5,29.80,NW,307,0.0,4.0,88,0.00,,,0.00,Wunderground v.1.15,2013-03-20 04:25:00,
2013-03-20 00:31:00,27.7,24.6,29.80,NW,309,0.0,2.0,88,0.00,,,0.00,Wunderground v.1.15,2013-03-20 04:31:00,
2013-03-20 00:36:00,27.7,24.6,29.80,NNW,335,1.0,3.0,88,0.00,,,0.00,Wunderground v.1.15,2013-03-20 04:36:00,
2013-03-20 00:41:00,27.6,24.5,29.79,NW,304,0.0,1.0,88,0.00,,,0.00,Wunderground v.1.15,2013-03-20 04:41:00,
2013-03-20 00:46:00,27.5,24.7,29.79,NNW,337,0.0,3.0,89,0.00,,,0.00,Wunderground v.1.15,2013-03-20 04:46:00,
2013-03-20 00:51:00,27.4,24.6,29.79,NNW,342,2.0,2.0,89,0.00,,,0.00,Wunderground v.1.15,2013-03-20 04:51:00,
2013-03-20 00:57:00,27.3,24.5,29.80,NNW,340,0.0,2.0,89,0.00,,,0.00,Wunderground v.1.15,2013-03-20 04:57:00,
2013-03-20 01:02:00,27.4,24.6,29.79,NNW,340,0.0,2.0,89,0.00,,,0.00,Wunderground v.1.15,2013-03-20 05:02:00,
2013-03-20 01:07:00,27.5,24.7,29.79,NNW,340,0.0,2.0,89,0.00,,,0.00,Wunderground v.1.15,2013-03-20 05:07:00,
2013-03-20 01:13:00,27.5,24.7,29.80,NNW,340,1.0,1.0,89,0.00,,,0.00,Wunderground v.1.15,2013-03-20 05:13:00,
2013-03-20 01:18:00,27.4,24.6,29.80,NNW,340,1.0,1.0,89,0.00,,,0.00,Wunderground v.1.15,2013-03-20 05:18:00,
2013-03-20 01:24:00,27.4,24.6,29.80,NNW,340,0.0,2.0,89,0.00,,,0.00,Wunderground v.1.15,2013-03-20 05:24:00,
2013-03-20 01:29:00,27.4,24.6,29.81,NNW,340,1.0,2.0,89,0.00,,,0.00,Wunderground v.1.15,2013-03-20 05:29:00,
2013-03-20 01:34:00,27.4,24.6,29.81,NW,319,1.0,2.0,89,0.00,,,0.00,Wunderground v.1.15,2013-03-20 05:34:00,
2013-03-20 01:40:00,27.4,24.6,29.81,West,274,2.0,2.0,89,0.00,,,0.00,Wunderground v.1.15,2013-03-20 05:40:00,
2013-03-20 01:45:00,27.3,24.5,29.81,NNW,329,7.0,7.0,89,0.00,,,0.00,Wunderground v.1.15,2013-03-20 05:45:00,
2013-03-20 01:50:00,27.3,24.5,29.80,WNW,301,2.0,3.0,89,0.00,,,0.00,Wunderground v.1.15,2013-03-20 05:50:00,
2013-03-20 01:55:00,27.2,24.1,29.81,WNW,300,2.0,4.0,88,0.00,,,0.00,Wunderground v.1.15,2013-03-20 05:55:00,
2013-03-20 02:01:00,27.0,23.9,29.81,North,360,3.0,5.0,88,0.00,,,0.00,Wunderground v.1.15,2013-03-20 06:01:00,
2013-03-20 02:07:00,26.9,23.8,29.81,WNW,290,2.0,5.0,88,0.00,,,0.00,Wunderground v.1.15,2013-03-20 06:07:00,
2013-03-20 02:12:00,26.7,23.6,29.81,NW,316,1.0,2.0,88,0.00,,,0.00,Wunderground v.1.15,2013-03-20 06:12:00,
2013-03-20 02:17:00,26.5,23.4,29.81,West,263,3.0,3.0,88,0.00,,,0.00,Wunderground v.1.15,2013-03-20 06:17:00,
2013-03-20 02:22:00,26.5,23.4,29.82,NNW,336,2.0,4.0,88,0.00,,,0.00,Wunderground v.1.15,2013-03-20 06:22:00,
2013-03-20 02:27:00,26.3,23.2,29.82,NNW,336,0.0,4.0,88,0.00,,,0.00,Wunderground v.1.15,2013-03-20 06:27:00,
2013-03-20 02:32:00,26.2,23.1,29.82,WNW,283,2.0,3.0,88,0.00,,,0.00,Wunderground v.1.15,2013-03-20 06:32:00,
2013-03-20 02:37:00,26.1,23.0,29.82,WNW,283,1.0,3.0,88,0.00,,,0.00,Wunderground v.1.15,2013-03-20 06:37:00,
2013-03-20 02:42:00,26.0,23.2,29.82,WNW,283,0.0,1.0,89,0.00,,,0.00,Wunderground v.1.15,2013-03-20 06:42:00,
2013-03-20 02:47:00,25.9,22.8,29.82,WNW,283,0.0,1.0,88,0.00,,,0.00,Wunderground v.1.15,2013-03-20 06:47:00,
2013-03-20 02:52:00,25.7,22.6,29.82,WNW,283,0.0,0.0,88,0.00,,,0.00,Wunderground v.1.15,2013-03-20 06:52:00,
2013-03-20 02:57:00,25.6,22.8,29.82,WNW,283,0.0,0.0,89,0.00,,,0.00,Wunderground v.1.15,2013-03-20 06:57:00,
2013-03-20 03:02:00,25.4,22.6,29.82,WNW,283,0.0,0.0,89,0.00,,,0.00,Wunderground v.1.15,2013-03-20 07:02:00,
2013-03-20 03:07:00,25.3,22.2,29.82,WNW,283,1.0,1.0,88,0.00,,,0.00,Wunderground v.1.15,2013-03-20 07:07:00,
2013-03-20 03:12:00,25.2,22.1,29.82,WNW,283,2.0,2.0,88,0.00,,,0.00,Wunderground v.1.15,2013-03-20 07:12:00,
2013-03-20 03:17:00,25.3,22.2,29.82,WNW,283,2.0,3.0,88,0.00,,,0.00,Wunderground v.1.15,2013-03-20 07:17:00,
2013-03-20 03:22:00,25.6,22.5,29.82,West,279,1.0,4.0,88,0.00,,,0.00,Wunderground v.1.15,2013-03-20 07:22:00,
2013-03-20 03:27:00,25.8,22.7,29.82,West,276,7.0,8.0,88,0.00,,,0.00,Wunderground v.1.15,2013-03-20 07:27:00,
2013-03-20 03:32:00,26.0,22.7,29.82,West,259,4.0,14.0,87,0.00,,,0.00,Wunderground v.1.15,2013-03-20 07:32:00,
2013-03-20 03:37:00,26.2,22.6,29.82,West,280,4.0,14.0,86,0.00,,,0.00,Wunderground v.1.15,2013-03-20 07:37:00,
2013-03-20 03:42:00,26.2,22.3,29.82,West,275,2.0,5.0,85,0.00,,,0.00,Wunderground v.1.15,2013-03-20 07:42:00,
2013-03-20 03:47:00,26.2,22.3,29.82,WSW,249,0.0,8.0,85,0.00,,,0.00,Wunderground v.1.15,2013-03-20 07:47:00,
2013-03-20 03:52:00,26.0,22.1,29.82,WSW,249,3.0,7.0,85,0.00,,,0.00,Wunderground v.1.15,2013-03-20 07:52:00,
2013-03-20 03:58:00,26.0,22.1,29.82,WSW,243,2.0,8.0,85,0.00,,,0.00,Wunderground v.1.15,2013-03-20 07:58:00,
2013-03-20 04:03:00,25.9,22.0,29.82,WNW,294,3.0,8.0,85,0.00,,,0.00,Wunderground v.1.15,2013-03-20 08:03:00,
2013-03-20 04:08:00,25.7,21.8,29.82,West,272,2.0,8.0,85,0.00,,,0.00,Wunderground v.1.15,2013-03-20 08:08:00,
2013-03-20 04:13:00,25.4,21.8,29.83,NW,319,2.0,4.0,86,0.00,,,0.00,Wunderground v.1.15,2013-03-20 08:13:00,
2013-03-20 04:18:00,25.3,21.7,29.83,West,266,2.0,6.0,86,0.00,,,0.00,Wunderground v.1.15,2013-03-20 08:18:00,
2013-03-20 04:23:00,25.3,21.7,29.83,WSW,255,4.0,5.0,86,0.00,,,0.00,Wunderground v.1.15,2013-03-20 08:23:00,
2013-03-20 04:28:00,25.2,21.6,29.83,West,267,0.0,5.0,86,0.00,,,0.00,Wunderground v.1.15,2013-03-20 08:28:00,
2013-03-20 04:33:00,25.3,22.0,29.83,WSW,252,3.0,6.0,87,0.00,,,0.00,Wunderground v.1.15,2013-03-20 08:33:00,
2013-03-20 04:38:00,25.4,21.8,29.83,WSW,250,4.0,7.0,86,0.00,,,0.00,Wunderground v.1.15,2013-03-20 08:38:00,
2013-03-20 04:43:00,25.4,21.5,29.84,West,273,1.0,5.0,85,0.00,,,0.00,Wunderground v.1.15,2013-03-20 08:43:00,
2013-03-20 04:48:00,25.6,22.0,29.83,WNW,298,3.0,8.0,86,0.00,,,0.00,Wunderground v.1.15,2013-03-20 08:48:00,
2013-03-20 04:53:00,25.4,21.2,29.83,WSW,248,3.0,10.0,84,0.00,,,0.00,Wunderground v.1.15,2013-03-20 08:53:00,
2013-03-20 04:58:00,25.2,21.3,29.84,WSW,248,5.0,10.0,85,0.00,,,0.00,Wunderground v.1.15,2013-03-20 08:58:00,
2013-03-20 05:03:00,25.3,20.9,29.84,West,263,9.0,11.0,83,0.00,,,0.00,Wunderground v.1.15,2013-03-20 09:03:00,
2013-03-20 05:08:00,25.3,20.9,29.84,SW,232,5.0,12.0,83,0.00,,,0.00,Wunderground v.1.15,2013-03-20 09:08:00,
2013-03-20 05:13:00,25.2,20.5,29.83,WNW,282,5.0,10.0,82,0.00,,,0.00,Wunderground v.1.15,2013-03-20 09:13:00,
2013-03-20 05:18:00,25.3,21.1,29.84,WNW,284,1.0,10.0,84,0.00,,,0.00,Wunderground v.1.15,2013-03-20 09:18:00,
2013-03-20 05:23:00,25.1,20.7,29.84,WSW,258,4.0,9.0,83,0.00,,,0.00,Wunderground v.1.15,2013-03-20 09:23:00,
2013-03-20 05:28:00,24.9,20.2,29.84,SSW,209,1.0,10.0,82,0.00,,,0.00,Wunderground v.1.15,2013-03-20 09:28:00,
2013-03-20 05:33:00,25.3,21.1,29.84,WSW,254,3.0,7.0,84,0.00,,,0.00,Wunderground v.1.15,2013-03-20 09:33:00,
2013-03-20 05:38:00,24.8,20.4,29.84,SW,223,5.0,9.0,83,0.00,,,0.00,Wunderground v.1.15,2013-03-20 09:38:00,
2013-03-20 05:43:00,24.6,20.2,29.84,WSW,252,6.0,8.0,83,0.00,,,0.00,Wunderground v.1.15,2013-03-20 09:43:00,
2013-03-20 05:48:00,24.7,20.0,29.84,West,267,5.0,12.0,82,0.00,,,0.00,Wunderground v.1.15,2013-03-20 09:48:00,
2013-03-20 05:53:00,24.7,20.0,29.84,WSW,244,5.0,7.0,82,0.00,,,0.00,Wunderground v.1.15,2013-03-20 09:53:00,
2013-03-20 05:58:00,24.5,19.8,29.84,West,264,1.0,7.0,82,0.00,,,0.00,Wunderground v.1.15,2013-03-20 09:58:00,
2013-03-20 06:03:00,24.6,19.9,29.84,WSW,242,2.0,8.0,82,0.00,,,0.00,Wunderground v.1.15,2013-03-20 10:03:00,
2013-03-20 06:08:00,24.6,19.9,29.85,West,271,3.0,12.0,82,0.00,,,0.00,Wunderground v.1.15,2013-03-20 10:08:00,
2013-03-20 06:13:00,24.6,19.9,29.85,NNW,327,9.0,9.0,82,0.00,,,0.00,Wunderground v.1.15,2013-03-20 10:13:00,
2013-03-20 06:18:00,24.7,19.7,29.85,WSW,258,7.0,11.0,81,0.00,,,0.00,Wunderground v.1.15,2013-03-20 10:18:00,
2013-03-20 06:23:00,24.9,19.6,29.85,WSW,253,5.0,14.0,80,0.00,,,0.00,Wunderground v.1.15,2013-03-20 10:23:00,
2013-03-20 06:28:00,24.7,19.7,29.85,WNW,299,3.0,14.0,81,0.00,,,0.00,Wunderground v.1.15,2013-03-20 10:28:00,
2013-03-20 06:33:00,24.6,19.6,29.85,WNW,294,6.0,10.0,81,0.00,,,0.00,Wunderground v.1.15,2013-03-20 10:33:00,
2013-03-20 06:38:00,24.8,19.8,29.85,West,274,3.0,11.0,81,0.00,,,0.00,Wunderground v.1.15,2013-03-20 10:38:00,
2013-03-20 06:43:00,24.8,19.5,29.85,WNW,301,10.0,10.0,80,0.00,,,0.00,Wunderground v.1.15,2013-03-20 10:43:00,
2013-03-20 06:48:00,24.8,19.5,29.85,WNW,286,4.0,10.0,80,0.00,,,0.00,Wunderground v.1.15,2013-03-20 10:48:00,
2013-03-20 06:53:00,24.9,19.6,29.85,WSW,255,5.0,8.0,80,0.00,,,0.00,Wunderground v.1.15,2013-03-20 10:53:00,
2013-03-20 06:58:00,25.1,19.5,29.85,WSW,251,5.0,16.0,79,0.00,,,0.00,Wunderground v.1.15,2013-03-20 10:58:00,
2013-03-20 07:03:00,25.1,19.5,29.85,WNW,283,9.0,16.0,79,0.00,,,0.00,Wunderground v.1.15,2013-03-20 11:03:00,
2013-03-20 07:08:00,25.2,19.6,29.85,West,261,12.0,16.0,79,0.00,,,0.00,Wunderground v.1.15,2013-03-20 11:08:00,
2013-03-20 07:13:00,25.3,19.7,29.85,West,259,5.0,15.0,79,0.00,,,0.00,Wunderground v.1.15,2013-03-20 11:13:00,
2013-03-20 07:18:00,25.4,19.8,29.85,SW,221,7.0,14.0,79,0.00,,,0.00,Wunderground v.1.15,2013-03-20 11:18:00,
2013-03-20 07:23:00,25.4,19.5,29.85,SW,235,6.0,14.0,78,0.00,,,0.00,Wunderground v.1.15,2013-03-20 11:23:00,
2013-03-20 07:29:00,25.6,20.0,29.86,SW,231,13.0,13.0,79,0.00,,,0.00,Wunderground v.1.15,2013-03-20 11:29:00,
2013-03-20 07:34:00,25.7,19.8,29.85,WSW,252,6.0,16.0,78,0.00,,,0.00,Wunderground v.1.15,2013-03-20 11:34:00,
2013-03-20 07:39:00,25.9,20.6,29.85,NW,311,5.0,6.0,80,0.00,,,0.00,Wunderground v.1.15,2013-03-20 11:39:00,
2013-03-20 07:44:00,25.9,19.7,29.86,NW,305,6.0,15.0,77,0.00,,,0.00,Wunderground v.1.15,2013-03-20 11:44:00,
2013-03-20 07:49:00,25.9,19.7,29.86,WNW,286,4.0,7.0,77,0.00,,,0.00,Wunderground v.1.15,2013-03-20 11:49:00,
2013-03-20 07:54:00,25.9,19.7,29.86,West,270,9.0,14.0,77,0.00,,,0.00,Wunderground v.1.15,2013-03-20 11:54:00,
2013-03-20 07:59:00,26.0,19.8,29.86,WSW,244,8.0,9.0,77,0.00,,,0.00,Wunderground v.1.15,2013-03-20 11:59:00,
2013-03-20 08:04:00,26.2,20.0,29.86,WSW,248,3.0,12.0,77,0.00,,,0.00,Wunderground v.1.15,2013-03-20 12:04:00,
2013-03-20 08:09:00,26.4,19.9,29.86,NW,316,5.0,10.0,76,0.00,,,0.00,Wunderground v.1.15,2013-03-20 12:09:00,
2013-03-20 08:14:00,26.6,20.1,29.86,West,274,5.0,17.0,76,0.00,,,0.00,Wunderground v.1.15,2013-03-20 12:14:00,
2013-03-20 08:19:00,26.7,20.5,29.86,WSW,251,7.0,16.0,77,0.00,,,0.00,Wunderground v.1.15,2013-03-20 12:19:00,
2013-03-20 08:24:00,27.0,20.4,29.86,WSW,243,6.0,17.0,76,0.00,,,0.00,Wunderground v.1.15,2013-03-20 12:24:00,
2013-03-20 08:29:00,27.1,20.5,29.85,West,271,6.0,11.0,76,0.00,,,0.00,Wunderground v.1.15,2013-03-20 12:29:00,
2013-03-20 08:34:00,27.2,20.6,29.85,West,277,13.0,17.0,76,0.00,,,0.00,Wunderground v.1.15,2013-03-20 12:34:00,
2013-03-20 08:39:00,27.3,20.4,29.85,WSW,251,6.0,17.0,75,0.00,,,0.00,Wunderground v.1.15,2013-03-20 12:39:00,
2013-03-20 08:44:00,27.4,20.5,29.86,West,261,14.0,19.0,75,0.00,,,0.00,Wunderground v.1.15,2013-03-20 12:44:00,
2013-03-20 08:49:00,27.7,20.8,29.86,WNW,297,2.0,8.0,75,0.00,,,0.00,Wunderground v.1.15,2013-03-20 12:49:00,
2013-03-20 08:54:00,28.0,21.4,29.86,West,274,7.0,14.0,76,0.00,,,0.00,Wunderground v.1.15,2013-03-20 12:54:00,
2013-03-20 08:59:00,28.0,20.8,29.86,West,267,4.0,6.0,74,0.00,,,0.00,Wunderground v.1.15,2013-03-20 12:59:00,
2013-03-20 09:04:00,28.3,21.4,29.86,WSW,252,8.0,10.0,75,0.00,,,0.00,Wunderground v.1.15,2013-03-20 13:04:00,
2013-03-20 09:09:00,28.7,22.1,29.85,WNW,291,15.0,19.0,76,0.00,,,0.00,Wunderground v.1.15,2013-03-20 13:09:00,
2013-03-20 09:14:00,28.3,20.4,29.85,NW,324,12.0,19.0,72,0.00,,,0.00,Wunderground v.1.15,2013-03-20 13:14:00,
2013-03-20 09:19:00,28.2,20.0,29.86,WNW,283,18.0,18.0,71,0.00,,,0.00,Wunderground v.1.15,2013-03-20 13:19:00,
2013-03-20 09:25:00,28.5,21.3,29.86,WNW,285,7.0,18.0,74,0.00,,,0.00,Wunderground v.1.15,2013-03-20 13:25:00,
2013-03-20 09:30:00,28.5,20.0,29.86,NNE,15,3.0,19.0,70,0.00,,,0.00,Wunderground v.1.15,2013-03-20 13:30:00,
2013-03-20 09:35:00,28.5,20.0,29.85,WNW,284,6.0,19.0,70,0.00,,,0.00,Wunderground v.1.15,2013-03-20 13:35:00,
2013-03-20 09:40:00,28.8,20.2,29.86,NW,314,5.0,13.0,70,0.00,,,0.00,Wunderground v.1.15,2013-03-20 13:40:00,
2013-03-20 09:45:00,29.0,20.4,29.86,West,274,15.0,17.0,70,0.00,,,0.00,Wunderground v.1.15,2013-03-20 13:45:00,
2013-03-20 09:50:00,28.6,19.7,29.86,WSW,248,9.0,14.0,69,0.00,,,0.00,Wunderground v.1.15,2013-03-20 13:50:00,
2013-03-20 09:55:00,28.5,20.0,29.86,WSW,254,4.0,16.0,70,0.00,,,0.00,Wunderground v.1.15,2013-03-20 13:55:00,
2013-03-20 10:00:00,28.7,19.8,29.86,WSW,257,7.0,12.0,69,0.00,,,0.00,Wunderground v.1.15,2013-03-20 14:00:00,
2013-03-20 10:05:00,28.7,19.8,29.86,NW,317,7.0,18.0,69,0.00,,,0.00,Wunderground v.1.15,2013-03-20 14:05:00,
2013-03-20 10:10:00,28.7,19.8,29.86,WSW,252,14.0,19.0,69,0.00,,,0.00,Wunderground v.1.15,2013-03-20 14:10:00,
2013-03-20 10:15:00,28.8,19.2,29.86,SW,223,7.0,27.0,67,0.00,,,0.00,Wunderground v.1.15,2013-03-20 14:15:00,
2013-03-20 10:20:00,29.0,20.1,29.85,West,269,5.0,12.0,69,0.00,,,0.00,Wunderground v.1.15,2013-03-20 14:20:00,
2013-03-20 10:25:00,29.3,19.7,29.86,WNW,297,12.0,18.0,67,0.00,,,0.00,Wunderground v.1.15,2013-03-20 14:25:00,
2013-03-20 10:30:00,29.7,20.1,29.86,SSW,197,3.0,14.0,67,0.00,,,0.00,Wunderground v.1.15,2013-03-20 14:30:00,
2013-03-20 10:35:00,30.1,20.1,29.86,WSW,258,2.0,14.0,66,0.00,,,0.00,Wunderground v.1.15,2013-03-20 14:35:00,
2013-03-20 10:40:00,30.5,20.1,29.86,WSW,250,6.0,11.0,65,0.00,,,0.00,Wunderground v.1.15,2013-03-20 14:40:00,
2013-03-20 10:45:00,30.8,19.7,29.86,West,269,7.0,15.0,63,0.00,,,0.00,Wunderground v.1.15,2013-03-20 14:45:00,
2013-03-20 10:50:00,30.7,19.6,29.86,WNW,296,6.0,14.0,63,0.00,,,0.00,Wunderground v.1.15,2013-03-20 14:50:00,
2013-03-20 10:55:00,30.8,19.7,29.86,SW,235,6.0,14.0,63,0.00,,,0.00,Wunderground v.1.15,2013-03-20 14:55:00,
2013-03-20 11:00:00,30.8,20.0,29.86,West,279,7.0,10.0,64,0.00,,,0.00,Wunderground v.1.15,2013-03-20 15:00:00,
2013-03-20 11:05:00,31.2,19.7,29.86,SW,230,4.0,13.0,62,0.00,,,0.00,Wunderground v.1.15,2013-03-20 15:05:00,
2013-03-20 11:10:00,31.4,19.5,29.86,SW,225,8.0,14.0,61,0.00,,,0.00,Wunderground v.1.15,2013-03-20 15:10:00,
2013-03-20 11:15:00,31.3,20.9,29.86,SW,232,4.0,14.0,65,0.00,,,0.00,Wunderground v.1.15,2013-03-20 15:15:00,
2013-03-20 11:20:00,31.2,20.4,29.86,WSW,255,12.0,17.0,64,0.00,,,0.00,Wunderground v.1.15,2013-03-20 15:20:00,
2013-03-20 11:25:00,30.7,18.8,29.86,WNW,285,7.0,23.0,61,0.00,,,0.00,Wunderground v.1.15,2013-03-20 15:25:00,
2013-03-20 11:31:00,30.9,19.4,29.86,South,185,8.0,15.0,62,0.00,,,0.00,Wunderground v.1.15,2013-03-20 15:31:00,
2013-03-20 11:36:00,31.4,19.5,29.86,WNW,284,5.0,18.0,61,0.00,,,0.00,Wunderground v.1.15,2013-03-20 15:36:00,
2013-03-20 11:41:00,32.0,20.4,29.86,NNW,340,2.0,8.0,62,0.00,,,0.00,Wunderground v.1.15,2013-03-20 15:41:00,
2013-03-20 11:46:00,31.4,18.7,29.86,West,262,15.0,23.0,59,0.00,,,0.00,Wunderground v.1.15,2013-03-20 15:46:00,
2013-03-20 11:51:00,31.1,18.0,29.86,NW,318,3.0,15.0,58,0.00,,,0.00,Wunderground v.1.15,2013-03-20 15:51:00,
2013-03-20 11:56:00,31.5,18.4,29.86,SW,232,7.0,15.0,58,0.00,,,0.00,Wunderground v.1.15,2013-03-20 15:56:00,
2013-03-20 12:01:00,31.5,18.0,29.86,WSW,258,7.0,18.0,57,0.00,,,0.00,Wunderground v.1.15,2013-03-20 16:01:00,
2013-03-20 12:06:00,31.5,17.6,29.86,West,271,10.0,23.0,56,0.00,,,0.01,Wunderground v.1.15,2013-03-20 16:06:00,
2013-03-20 12:11:00,31.5,17.6,29.86,WSW,244,12.0,20.0,56,0.00,,,0.01,Wunderground v.1.15,2013-03-20 16:11:00,
2013-03-20 12:16:00,31.7,18.6,29.86,WSW,258,8.0,20.0,58,0.00,,,0.01,Wunderground v.1.15,2013-03-20 16:16:00,
2013-03-20 12:21:00,31.8,17.5,29.86,NW,307,7.0,15.0,55,0.00,,,0.01,Wunderground v.1.15,2013-03-20 16:21:00,
2013-03-20 12:26:00,32.4,18.0,29.87,WSW,257,11.0,17.0,55,0.00,,,0.01,Wunderground v.1.15,2013-03-20 16:26:00,
2013-03-20 12:31:00,31.9,17.1,29.86,NW,307,12.0,19.0,54,0.00,,,0.01,Wunderground v.1.15,2013-03-20 16:31:00,
2013-03-20 12:36:00,32.7,18.7,29.86,South,188,8.0,19.0,56,0.00,,,0.01,Wunderground v.1.15,2013-03-20 16:36:00,
2013-03-20 12:41:00,32.6,17.8,29.86,South,169,6.0,17.0,54,0.00,,,0.01,Wunderground v.1.15,2013-03-20 16:41:00,
2013-03-20 12:46:00,32.6,17.8,29.86,NNW,341,8.0,20.0,54,0.00,,,0.01,Wunderground v.1.15,2013-03-20 16:46:00,
2013-03-20 12:51:00,32.7,17.4,29.86,WNW,298,9.0,19.0,53,0.00,,,0.01,Wunderground v.1.15,2013-03-20 16:51:00,
2013-03-20 12:56:00,33.2,17.9,29.86,North,11,2.0,19.0,53,0.00,,,0.01,Wunderground v.1.15,2013-03-20 16:56:00,
2013-03-20 13:01:00,33.9,18.1,29.86,SSW,203,5.0,10.0,52,0.00,,,0.01,Wunderground v.1.15,2013-03-20 17:01:00,
2013-03-20 13:06:00,33.9,18.1,29.86,NW,317,5.0,17.0,52,0.00,,,0.01,Wunderground v.1.15,2013-03-20 17:06:00,
2013-03-20 13:11:00,33.8,17.6,29.86,WSW,239,9.0,15.0,51,0.00,,,0.01,Wunderground v.1.15,2013-03-20 17:11:00,
2013-03-20 13:16:00,33.6,17.4,29.86,West,278,6.0,16.0,51,0.00,,,0.01,Wunderground v.1.15,2013-03-20 17:16:00,
2013-03-20 13:21:00,34.5,19.5,29.86,NW,313,15.0,15.0,54,0.00,,,0.01,Wunderground v.1.15,2013-03-20 17:21:00,
2013-03-20 13:26:00,33.7,17.0,29.85,WSW,256,10.0,23.0,50,0.00,,,0.01,Wunderground v.1.15,2013-03-20 17:26:00,
2013-03-20 13:31:00,33.7,17.5,29.85,West,266,7.0,11.0,51,0.00,,,0.01,Wunderground v.1.15,2013-03-20 17:31:00,
2013-03-20 13:36:00,34.5,17.8,29.85,WSW,250,5.0,15.0,50,0.00,,,0.01,Wunderground v.1.15,2013-03-20 17:36:00,
2013-03-20 13:41:00,35.1,18.3,29.85,WSW,254,5.0,10.0,50,0.00,,,0.01,Wunderground v.1.15,2013-03-20 17:41:00,
2013-03-20 13:46:00,34.8,16.6,29.86,WSW,239,9.0,22.0,47,0.00,,,0.01,Wunderground v.1.15,2013-03-20 17:46:00,
2013-03-20 13:51:00,34.8,17.6,29.85,WSW,240,5.0,15.0,49,0.00,,,0.01,Wunderground v.1.15,2013-03-20 17:51:00,
2013-03-20 13:56:00,34.9,17.2,29.85,WSW,249,5.0,22.0,48,0.00,,,0.01,Wunderground v.1.15,2013-03-20 17:56:00,
2013-03-20 14:01:00,35.1,17.8,29.85,West,265,6.0,13.0,49,0.00,,,0.01,Wunderground v.1.15,2013-03-20 18:01:00,
2013-03-20 14:06:00,35.4,17.6,29.85,ESE,106,5.0,21.0,48,0.00,,,0.02,Wunderground v.1.15,2013-03-20 18:06:00,
2013-03-20 14:11:00,35.2,17.9,29.85,WSW,238,7.0,14.0,49,0.00,,,0.02,Wunderground v.1.15,2013-03-20 18:11:00,
2013-03-20 14:16:00,34.9,17.7,29.84,WSW,256,10.0,19.0,49,0.00,,,0.02,Wunderground v.1.15,2013-03-20 18:16:00,
2013-03-20 14:21:00,34.6,17.8,29.84,WNW,295,4.0,17.0,50,0.00,,,0.02,Wunderground v.1.15,2013-03-20 18:21:00,
2013-03-20 14:26:00,35.0,18.2,29.84,SW,234,8.0,17.0,50,0.00,,,0.02,Wunderground v.1.15,2013-03-20 18:26:00,
2013-03-20 14:31:00,34.8,18.0,29.84,West,273,12.0,18.0,50,0.00,,,0.02,Wunderground v.1.15,2013-03-20 18:31:00,
2013-03-20 14:36:00,35.0,19.1,29.84,WNW,289,4.0,18.0,52,0.00,,,0.02,Wunderground v.1.15,2013-03-20 18:36:00,
2013-03-20 14:41:00,35.4,18.6,29.84,SSW,210,11.0,19.0,50,0.00,,,0.02,Wunderground v.1.15,2013-03-20 18:41:00,
2013-03-20 14:46:00,35.9,19.5,29.84,SSW,205,16.0,19.0,51,0.00,,,0.02,Wunderground v.1.15,2013-03-20 18:46:00,
2013-03-20 14:51:00,36.1,19.2,29.83,SW,230,9.0,22.0,50,0.00,,,0.03,Wunderground v.1.15,2013-03-20 18:51:00,
2013-03-20 14:56:00,35.7,18.4,29.84,WSW,249,7.0,22.0,49,0.00,,,0.03,Wunderground v.1.15,2013-03-20 18:56:00,
2013-03-20 15:02:00,36.0,18.7,29.84,WSW,258,6.0,13.0,49,0.00,,,0.03,Wunderground v.1.15,2013-03-20 19:02:00,
2013-03-20 15:07:00,35.6,19.7,29.84,WSW,257,5.0,18.0,52,0.55,,,0.08,Wunderground v.1.15,2013-03-20 19:07:00,
2013-03-20 15:12:00,36.6,22.4,29.84,WNW,294,8.0,11.0,56,0.18,,,0.09,Wunderground v.1.15,2013-03-20 19:12:00,
2013-03-20 15:17:00,35.7,18.4,29.84,WSW,240,10.0,17.0,49,0.15,,,0.11,Wunderground v.1.15,2013-03-20 19:17:00,
2013-03-20 15:23:00,35.5,19.1,29.84,North,11,6.0,14.0,51,0.10,,,0.11,Wunderground v.1.15,2013-03-20 19:23:00,
2013-03-20 15:28:00,35.5,19.6,29.84,West,259,9.0,15.0,52,0.09,,,0.12,Wunderground v.1.15,2013-03-20 19:28:00,
2013-03-20 15:33:00,35.6,19.2,29.84,SW,216,15.0,15.0,51,0.10,,,0.13,Wunderground v.1.15,2013-03-20 19:33:00,
2013-03-20 15:38:00,35.8,19.4,29.83,NW,304,9.0,15.0,51,0.07,,,0.13,Wunderground v.1.15,2013-03-20 19:38:00,
2013-03-20 15:43:00,36.5,19.6,29.83,West,271,5.0,15.0,50,0.06,,,0.14,Wunderground v.1.15,2013-03-20 19:43:00,
2013-03-20 15:48:00,35.9,19.0,29.83,NW,310,4.0,17.0,50,0.06,,,0.14,Wunderground v.1.15,2013-03-20 19:48:00,
2013-03-20 15:53:00,36.2,19.3,29.84,WNW,294,12.0,12.0,50,0.07,,,0.15,Wunderground v.1.15,2013-03-20 19:53:00,
2013-03-20 15:58:00,35.6,19.2,29.83,SW,227,7.0,15.0,51,0.06,,,0.15,Wunderground v.1.15,2013-03-20 19:58:00,
2013-03-20 16:03:00,35.4,19.0,29.83,WNW,296,2.0,13.0,51,0.05,,,0.16,Wunderground v.1.15,2013-03-20 20:03:00,
2013-03-20 16:08:00,35.6,18.3,29.83,NW,310,17.0,17.0,49,0.05,,,0.16,Wunderground v.1.15,2013-03-20 20:08:00,
2013-03-20 16:13:00,35.7,19.3,29.83,West,273,2.0,16.0,51,0.06,,,0.17,Wunderground v.1.15,2013-03-20 20:13:00,
2013-03-20 16:18:00,35.7,18.9,29.83,West,279,4.0,18.0,50,0.06,,,0.17,Wunderground v.1.15,2013-03-20 20:18:00,
2013-03-20 16:23:00,35.8,19.0,29.83,WSW,248,11.0,22.0,50,0.05,,,0.17,Wunderground v.1.15,2013-03-20 20:23:00,
2013-03-20 16:28:00,36.2,19.8,29.83,NW,309,12.0,22.0,51,0.04,,,0.18,Wunderground v.1.15,2013-03-20 20:28:00,
2013-03-20 16:33:00,36.5,19.6,29.84,WSW,242,7.0,13.0,50,0.04,,,0.18,Wunderground v.1.15,2013-03-20 20:33:00,
2013-03-20 16:38:00,36.2,18.9,29.83,WSW,253,16.0,16.0,49,0.04,,,0.18,Wunderground v.1.15,2013-03-20 20:38:00,
2013-03-20 16:43:00,36.5,24.3,29.83,WSW,251,5.0,16.0,61,0.04,,,0.18,Wunderground v.1.15,2013-03-20 20:43:00,
2013-03-20 16:48:00,35.8,18.5,29.84,WSW,257,8.0,18.0,49,0.04,,,0.19,Wunderground v.1.15,2013-03-20 20:48:00,
2013-03-20 16:53:00,35.6,19.2,29.84,West,277,8.0,8.0,51,0.04,,,0.19,Wunderground v.1.15,2013-03-20 20:53:00,
2013-03-20 16:58:00,35.1,18.3,29.84,WSW,248,7.0,14.0,50,0.04,,,0.19,Wunderground v.1.15,2013-03-20 20:58:00,
2013-03-20 17:03:00,34.9,18.6,29.84,West,263,6.0,11.0,51,0.00,,,0.19,Wunderground v.1.15,2013-03-20 21:03:00,
2013-03-20 17:08:00,34.8,18.5,29.84,WSW,254,7.0,12.0,51,0.00,,,0.19,Wunderground v.1.15,2013-03-20 21:08:00,
2013-03-20 17:13:00,35.0,19.1,29.84,West,274,8.0,14.0,52,0.00,,,0.19,Wunderground v.1.15,2013-03-20 21:13:00,
2013-03-20 17:18:00,35.0,19.1,29.84,SW,230,1.0,6.0,52,0.00,,,0.19,Wunderground v.1.15,2013-03-20 21:18:00,
2013-03-20 17:23:00,35.1,18.8,29.85,NW,313,3.0,9.0,51,0.00,,,0.19,Wunderground v.1.15,2013-03-20 21:23:00,
2013-03-20 17:28:00,35.1,18.8,29.85,WSW,258,4.0,5.0,51,0.00,,,0.20,Wunderground v.1.15,2013-03-20 21:28:00,
2013-03-20 17:33:00,35.0,18.7,29.85,West,273,5.0,12.0,51,0.00,,,0.20,Wunderground v.1.15,2013-03-20 21:33:00,
2013-03-20 17:38:00,35.0,18.7,29.85,West,268,8.0,9.0,51,0.00,,,0.20,Wunderground v.1.15,2013-03-20 21:38:00,
2013-03-20 17:43:00,35.0,18.7,29.85,WNW,303,5.0,14.0,51,0.00,,,0.20,Wunderground v.1.15,2013-03-20 21:43:00,
2013-03-20 17:48:00,35.0,18.7,29.86,NW,311,10.0,10.0,51,0.00,,,0.20,Wunderground v.1.15,2013-03-20 21:48:00,
2013-03-20 17:53:00,35.1,19.2,29.86,West,272,3.0,10.0,52,0.00,,,0.20,Wunderground v.1.15,2013-03-20 21:53:00,
2013-03-20 17:59:00,35.1,19.2,29.86,WNW,300,2.0,6.0,52,0.00,,,0.20,Wunderground v.1.15,2013-03-20 21:59:00,
2013-03-20 18:04:00,35.1,19.7,29.86,West,271,2.0,6.0,53,0.00,,,0.20,Wunderground v.1.15,2013-03-20 22:04:00,
2013-03-20 18:09:00,35.1,19.7,29.86,WNW,289,4.0,4.0,53,0.00,,,0.20,Wunderground v.1.15,2013-03-20 22:09:00,
2013-03-20 18:14:00,35.1,19.2,29.86,WSW,247,3.0,11.0,52,0.00,,,0.20,Wunderground v.1.15,2013-03-20 22:14:00,
2013-03-20 18:19:00,35.1,19.2,29.86,West,279,1.0,3.0,52,0.00,,,0.21,Wunderground v.1.15,2013-03-20 22:19:00,
2013-03-20 18:24:00,35.1,18.8,29.87,WNW,290,2.0,13.0,51,0.00,,,0.21,Wunderground v.1.15,2013-03-20 22:24:00,
2013-03-20 18:29:00,35.2,18.9,29.87,West,273,2.0,3.0,51,0.00,,,0.21,Wunderground v.1.15,2013-03-20 22:29:00,
2013-03-20 18:34:00,35.4,18.6,29.87,West,271,2.0,5.0,50,0.00,,,0.21,Wunderground v.1.15,2013-03-20 22:34:00,
2013-03-20 18:39:00,35.4,19.0,29.86,WSW,237,2.0,3.0,51,0.00,,,0.21,Wunderground v.1.15,2013-03-20 22:39:00,
2013-03-20 18:44:00,35.3,18.5,29.87,WSW,250,4.0,5.0,50,0.00,,,0.21,Wunderground v.1.15,2013-03-20 22:44:00,
2013-03-20 18:49:00,35.2,18.4,29.87,West,263,3.0,5.0,50,0.00,,,0.21,Wunderground v.1.15,2013-03-20 22:49:00,
2013-03-20 18:54:00,35.0,18.2,29.87,WSW,239,6.0,9.0,50,0.00,,,0.21,Wunderground v.1.15,2013-03-20 22:54:00,
2013-03-20 18:59:00,35.0,17.7,29.87,WSW,256,5.0,7.0,49,0.00,,,0.21,Wunderground v.1.15,2013-03-20 22:59:00,
2013-03-20 19:04:00,34.9,17.2,29.88,West,278,5.0,11.0,48,0.00,,,0.21,Wunderground v.1.15,2013-03-20 23:04:00,
2013-03-20 19:09:00,34.8,17.1,29.88,SW,231,5.0,6.0,48,0.00,,,0.21,Wunderground v.1.15,2013-03-20 23:09:00,
2013-03-20 19:14:00,34.9,19.0,29.88,West,272,4.0,9.0,52,0.00,,,0.21,Wunderground v.1.15,2013-03-20 23:14:00,
2013-03-20 19:19:00,34.9,18.1,29.88,West,273,1.0,3.0,50,0.00,,,0.21,Wunderground v.1.15,2013-03-20 23:19:00,
2013-03-20 19:24:00,35.0,19.1,29.88,West,273,1.0,3.0,52,0.00,,,0.21,Wunderground v.1.15,2013-03-20 23:24:00,
2013-03-20 19:29:00,35.0,20.0,29.88,WSW,257,3.0,6.0,54,0.00,,,0.21,Wunderground v.1.15,2013-03-20 23:29:00,
2013-03-20 19:34:00,34.6,17.8,29.88,WSW,257,3.0,6.0,50,0.00,,,0.21,Wunderground v.1.15,2013-03-20 23:34:00,
2013-03-20 19:39:00,34.8,19.4,29.88,West,261,2.0,3.0,53,0.00,,,0.21,Wunderground v.1.15,2013-03-20 23:39:00,
2013-03-20 19:45:00,34.8,18.9,29.88,West,269,0.0,5.0,52,0.00,,,0.21,Wunderground v.1.15,2013-03-20 23:45:00,
2013-03-20 19:49:00,34.2,17.5,29.88,West,263,2.0,5.0,50,0.00,,,0.21,Wunderground v.1.15,2013-03-20 23:49:00,
2013-03-20 19:54:00,33.9,17.2,29.89,West,265,1.0,5.0,50,0.00,,,0.21,Wunderground v.1.15,2013-03-20 23:54:00,
2013-03-20 19:59:00,33.5,17.3,29.89,West,265,2.0,3.0,51,0.00,,,0.21,Wunderground v.1.15,2013-03-20 23:59:00,
2013-03-20 20:04:00,33.4,17.2,29.88,WSW,242,1.0,5.0,51,0.00,,,0.21,Wunderground v.1.15,2013-03-21 00:04:00,
2013-03-20 20:09:00,33.3,17.1,29.89,WSW,242,0.0,1.0,51,0.00,,,0.21,Wunderground v.1.15,2013-03-21 00:09:00,
2013-03-20 20:14:00,33.1,17.4,29.88,WSW,242,0.0,1.0,52,0.00,,,0.21,Wunderground v.1.15,2013-03-21 00:14:00,
2013-03-20 20:20:00,32.8,17.5,29.89,WSW,242,0.0,1.0,53,0.00,,,0.21,Wunderground v.1.15,2013-03-21 00:20:00,
2013-03-20 20:25:00,32.4,18.4,29.89,WSW,242,0.0,1.0,56,0.00,,,0.21,Wunderground v.1.15,2013-03-21 00:25:00,
2013-03-20 20:30:00,32.4,18.0,29.89,WSW,242,0.0,0.0,55,0.00,,,0.21,Wunderground v.1.15,2013-03-21 00:30:00,
2013-03-20 20:35:00,32.2,18.7,29.89,WSW,242,0.0,0.0,57,0.00,,,0.21,Wunderground v.1.15,2013-03-21 00:35:00,
2013-03-20 20:40:00,32.0,20.1,29.89,WSW,242,0.0,0.0,61,0.00,,,0.21,Wunderground v.1.15,2013-03-21 00:40:00,
2013-03-20 20:45:00,31.6,19.7,29.89,WSW,242,0.0,0.0,61,0.00,,,0.21,Wunderground v.1.15,2013-03-21 00:45:00,
2013-03-20 20:50:00,31.2,20.1,29.89,WSW,242,0.0,0.0,63,0.00,,,0.21,Wunderground v.1.15,2013-03-21 00:50:00,
2013-03-20 20:55:00,30.7,19.6,29.89,WSW,242,0.0,0.0,63,0.00,,,0.21,Wunderground v.1.15,2013-03-21 00:55:00,
2013-03-20 21:00:00,30.1,19.7,29.89,WSW,242,0.0,0.0,65,0.00,,,0.21,Wunderground v.1.15,2013-03-21 01:00:00,
2013-03-20 21:06:00,29.6,19.3,29.89,WSW,242,0.0,0.0,65,0.00,,,0.21,Wunderground v.1.15,2013-03-21 01:06:00,
2013-03-20 21:11:00,29.1,19.2,29.89,WSW,242,0.0,0.0,66,0.00,,,0.21,Wunderground v.1.15,2013-03-21 01:11:00,
2013-03-20 21:17:00,28.7,19.5,29.90,WSW,242,0.0,1.0,68,0.00,,,0.21,Wunderground v.1.15,2013-03-21 01:17:00,
2013-03-20 21:22:00,28.5,20.0,29.90,WSW,242,0.0,0.0,70,0.00,,,0.21,Wunderground v.1.15,2013-03-21 01:22:00,
2013-03-20 21:27:00,28.4,20.2,29.90,WSW,242,0.0,0.0,71,0.00,,,0.21,Wunderground v.1.15,2013-03-21 01:27:00,
2013-03-20 21:32:00,28.2,20.0,29.90,WSW,242,0.0,0.0,71,0.00,,,0.21,Wunderground v.1.15,2013-03-21 01:32:00,
2013-03-20 21:37:00,28.0,20.1,29.90,WSW,242,0.0,1.0,72,0.00,,,0.21,Wunderground v.1.15,2013-03-21 01:37:00,
2013-03-20 21:42:00,27.8,20.3,29.90,WSW,242,0.0,0.0,73,0.00,,,0.21,Wunderground v.1.15,2013-03-21 01:42:00,
2013-03-20 21:47:00,28.0,21.1,29.90,WSW,242,0.0,0.0,75,0.00,,,0.21,Wunderground v.1.15,2013-03-21 01:47:00,
2013-03-20 21:52:00,28.3,21.7,29.91,WSW,242,0.0,0.0,76,0.00,,,0.21,Wunderground v.1.15,2013-03-21 01:52:00,
2013-03-20 21:57:00,28.2,21.0,29.91,WSW,242,0.0,0.0,74,0.00,,,0.21,Wunderground v.1.15,2013-03-21 01:57:00,
2013-03-20 22:02:00,27.9,20.0,29.91,WSW,242,0.0,0.0,72,0.00,,,0.21,Wunderground v.1.15,2013-03-21 02:02:00,
2013-03-20 22:07:00,27.7,19.8,29.91,WSW,242,0.0,0.0,72,0.00,,,0.21,Wunderground v.1.15,2013-03-21 02:07:00,
2013-03-20 22:12:00,27.5,20.0,29.91,WSW,242,0.0,0.0,73,0.00,,,0.21,Wunderground v.1.15,2013-03-21 02:12:00,
2013-03-20 22:17:00,27.4,20.2,29.91,WSW,242,0.0,0.0,74,0.00,,,0.21,Wunderground v.1.15,2013-03-21 02:17:00,
2013-03-20 22:22:00,27.4,19.6,29.91,WSW,242,0.0,0.0,72,0.00,,,0.21,Wunderground v.1.15,2013-03-21 02:22:00,
2013-03-20 22:27:00,27.5,20.3,29.91,WSW,242,0.0,0.0,74,0.00,,,0.21,Wunderground v.1.15,2013-03-21 02:27:00,
2013-03-20 22:32:00,27.2,20.0,29.91,WSW,242,0.0,0.0,74,0.00,,,0.21,Wunderground v.1.15,2013-03-21 02:32:00,
2013-03-20 22:37:00,26.9,20.0,29.91,WSW,242,0.0,0.0,75,0.00,,,0.21,Wunderground v.1.15,2013-03-21 02:37:00,
2013-03-20 22:42:00,26.7,20.1,29.91,WSW,242,0.0,0.0,76,0.00,,,0.21,Wunderground v.1.15,2013-03-21 02:42:00,
2013-03-20 22:47:00,26.6,20.1,29.91,WSW,242,0.0,0.0,76,0.00,,,0.21,Wunderground v.1.15,2013-03-21 02:47:00,
2013-03-20 22:52:00,26.7,20.8,29.91,WSW,242,0.0,0.0,78,0.00,,,0.21,Wunderground v.1.15,2013-03-21 02:52:00,
2013-03-20 22:57:00,26.6,20.4,29.91,WSW,242,0.0,0.0,77,0.00,,,0.21,Wunderground v.1.15,2013-03-21 02:57:00,
2013-03-20 23:02:00,26.7,21.1,29.91,WSW,242,0.0,0.0,79,0.00,,,0.21,Wunderground v.1.15,2013-03-21 03:02:00,
2013-03-20 23:07:00,27.1,21.5,29.91,WSW,242,0.0,0.0,79,0.00,,,0.21,Wunderground v.1.15,2013-03-21 03:07:00,
2013-03-20 23:12:00,26.8,20.6,29.91,WSW,242,0.0,0.0,77,0.00,,,0.21,Wunderground v.1.15,2013-03-21 03:12:00,
2013-03-20 23:17:00,26.8,21.2,29.91,WSW,242,0.0,0.0,79,0.00,,,0.21,Wunderground v.1.15,2013-03-21 03:17:00,
2013-03-20 23:22:00,27.1,21.5,29.91,WSW,242,0.0,0.0,79,0.00,,,0.21,Wunderground v.1.15,2013-03-21 03:22:00,
2013-03-20 23:27:00,27.5,22.1,29.91,WSW,242,0.0,0.0,80,0.00,,,0.21,Wunderground v.1.15,2013-03-21 03:27:00,
2013-03-20 23:32:00,27.3,21.3,29.91,WSW,242,0.0,0.0,78,0.00,,,0.21,Wunderground v.1.15,2013-03-21 03:32:00,
2013-03-20 23:37:00,26.9,20.7,29.91,WSW,242,0.0,0.0,77,0.00,,,0.21,Wunderground v.1.15,2013-03-21 03:37:00,
2013-03-20 23:41:00,26.0,20.4,29.90,WSW,242,0.0,0.0,79,0.00,,,0.21,Wunderground v.1.15,2013-03-21 03:41:00,
2013-03-20 23:42:00,26.0,20.7,29.90,WSW,242,0.0,0.0,80,0.00,,,0.21,Wunderground v.1.15,2013-03-21 03:42:00,
2013-03-20 23:43:00,26.6,21.0,29.91,WSW,242,0.0,0.0,79,0.00,,,0.21,Wunderground v.1.15,2013-03-21 03:43:00,
2013-03-20 23:44:00,25.9,20.6,29.90,WSW,242,0.0,0.0,80,0.00,,,0.00,Wunderground v.1.15,2013-03-21 03:44:00,
2013-03-20 23:45:00,25.9,20.6,29.90,WSW,242,1.0,1.0,80,0.00,,,0.00,Wunderground v.1.15,2013-03-21 03:45:00,
2013-03-20 23:46:00,25.8,20.5,29.91,WSW,242,0.0,2.0,80,0.00,,,0.00,Wunderground v.1.15,2013-03-21 03:46:00,
2013-03-20 23:47:00,25.7,20.4,29.91,WSW,242,2.0,2.0,80,0.00,,,0.00,Wunderground v.1.15,2013-03-21 03:47:00,
2013-03-20 23:48:00,26.6,21.3,29.90,WSW,242,0.0,0.0,80,0.00,,,0.21,Wunderground v.1.15,2013-03-21 03:48:00,
2013-03-20 23:49:00,25.5,20.2,29.90,WSW,242,0.0,2.0,80,0.00,,,0.00,Wunderground v.1.15,2013-03-21 03:49:00,
2013-03-20 23:53:00,26.4,20.8,29.90,WSW,242,0.0,0.0,79,0.00,,,0.21,Wunderground v.1.15,2013-03-21 03:53:00,
2013-03-20 23:58:00,26.1,20.5,29.90,WSW,242,1.0,2.0,79,0.00,,,0.21,Wunderground v.1.15,2013-03-21 03:58:00,